This is the latest recevied weather packets stored in our database for station/object HS3UAA-1. If no packets are shown the sender has not sent any weather packets the latest 10 day(s).
| Time | Temp. | Humidity | Pressure | Rain* | Wind** | Luminosity | Snow |
|---|---|---|---|---|---|---|---|
| 1788457332 | 33.33° C | 47% | 996 hPa | - | - | 0 W/m² | - |
| 1788457010 | 33.33° C | 47% | 996 hPa | - | - | 0 W/m² | - |
| 1788456688 | 33.89° C | 46% | 996 hPa | - | - | 0 W/m² | - |
| 1788456366 | 33.33° C | 47% | 996 hPa | - | - | 0 W/m² | - |
| 1788456044 | 33.33° C | 47% | 996 hPa | - | - | 0 W/m² | - |
| 1788455722 | 33.89° C | 46% | 996 hPa | - | - | 0 W/m² | - |
| 1788455400 | 33.33° C | 46% | 996 hPa | - | - | 0 W/m² | - |
| 1788455078 | 33.33° C | 46% | 996 hPa | - | - | 0 W/m² | - |
| 1788454756 | 33.89° C | 46% | 996 hPa | - | - | 0 W/m² | - |
| 1788454434 | 33.89° C | 45% | 996 hPa | - | - | 0 W/m² | - |
| 1788454112 | 33.33° C | 46% | 996 hPa | - | - | 0 W/m² | - |
| 1788453790 | 33.89° C | 45% | 996 hPa | - | - | 0 W/m² | - |
| 1788453468 | 35° C | 43% | 996 hPa | - | - | 0 W/m² | - |
| 1788453146 | 33.89° C | 46% | 996 hPa | - | - | 0 W/m² | - |
| 1788452824 | 33.89° C | 46% | 997 hPa | - | - | 0 W/m² | - |
| 1788452502 | 35° C | 43% | 997 hPa | - | - | 0 W/m² | - |
| 1788452180 | 33.89° C | 45% | 997 hPa | - | - | 0 W/m² | - |
| 1788451858 | 34.44° C | 45% | 997 hPa | - | - | 0 W/m² | - |
| 1788451536 | 35° C | 43% | 997 hPa | - | - | 0 W/m² | - |
| 1788451214 | 34.44° C | 44% | 998 hPa | - | - | 0 W/m² | - |
| 1788450892 | 35° C | 43% | 997 hPa | - | - | 0 W/m² | - |
| 1788450570 | 34.44° C | 44% | 997 hPa | - | - | 0 W/m² | - |
| 1788450002 | 35° C | 42% | 997 hPa | - | - | 0 W/m² | - |
| 1788449680 | 34.44° C | 43% | 997 hPa | - | - | 0 W/m² | - |
| 1788449358 | 35° C | 42% | 997 hPa | - | - | 0 W/m² | - |
* Rain since midnight (hover to see other rain measurements)
** Current wind speed in m/s (hover to see current wind gust speed)